Weather History for Nebraska City, NE

Change the Weather History Date:

Friday, February 22, 2013

  Actual Average (KSDA) Record (KSDA)
Temperature  
Mean Temperature 17 °F -  
Max Temperature 24 °F 44 °F 70 °F (1977)
Min Temperature 10 °F 23 °F -6 °F (1960)
Degree Days  
Heating Degree Days 48    
Moisture  
Dew Point 14 °F    
Average Humidity 82    
Maximum Humidity 98    
Minimum Humidity 65    
Precipitation  
Precipitation 0.00 in - - ()
Sea Level Pressure  
Sea Level Pressure 29.94 in    
Wind  
Wind Speed 5 mph (NW)    
Max Wind Speed 16 mph    
Max Gust Speed 20 mph    
Visibility 9 miles    
Events Snow    
Averages and records for this station are not official NWS values.
T = Trace of Precipitation, MM = Missing Value Source: NWS Daily Summary

Daily Weather History Graph

Daily Weather History Graph

Search for Another Location

Airport:

Trip Planner

Search our weather history database for the weather conditions in past years. The results will help you decide how hot, cold, wet, or windy it might be!

Date:

Astronomy

Feb. 22, 2013 Rise Set
Actual Time 7:07 AM CST 6:07 PM CST
Civil Twilight 6:39 AM CST 6:34 PM CST
Nautical Twilight 6:07 AM CST 7:06 PM CST
Astronomical Twilight 5:36 AM CST 7:38 PM CST
Moon 3:19 PM CST (2/22) 4:53 AM CST (2/22)
Length of Visible Light 11h 55m
Length of Day
10h 59m
Waxing Gibbous, 90% of the Moon is Illuminated
Feb 22
Waxing Gibbous
Feb 25
Full
Mar 4
Last Quarter
Mar 11
New
Mar 19
First Quarter

Hourly Weather History & Observations

Time (CST) Temp. Windchill Dew Point Humidity Pressure Visibility Wind Dir Wind Speed Gust Speed Precip Events Conditions
12:15 AM 23.0 °F - 22.5 °F 98% 29.80 in 4.0 mi Calm Calm - N/A Snow Light Snow
12:35 AM 23.4 °F - 22.5 °F 96% 29.81 in 7.0 mi Calm Calm - N/A Snow Light Snow
12:55 AM 23.4 °F - 22.5 °F 96% 29.81 in 5.0 mi Calm Calm - N/A Snow Light Snow
1:15 AM 23.4 °F - 22.6 °F 97% 29.80 in 4.0 mi Calm Calm - N/A Snow Light Snow
1:35 AM 23.4 °F - 22.6 °F 97% 29.81 in 3.0 mi Calm Calm - N/A Snow Light Snow
1:55 AM 23.2 °F - 22.3 °F 96% 29.81 in 3.0 mi Calm Calm - N/A Snow Light Snow
2:15 AM 22.8 °F - 21.9 °F 96% 29.81 in 2.0 mi Calm Calm - N/A Snow Light Snow
2:35 AM 22.5 °F - 21.6 °F 96% 29.81 in 3.0 mi Calm Calm - N/A Snow Light Snow
2:55 AM 22.1 °F 13.7 °F 21.2 °F 96% 29.81 in 3.0 mi NNW 6.9 mph - N/A Snow Light Snow
3:15 AM 22.1 °F 11.3 °F 21.0 °F 96% 29.81 in 5.0 mi NNW 10.4 mph - N/A Snow Light Snow
3:35 AM 21.4 °F 8.5 °F 19.9 °F 94% 29.81 in 7.0 mi NNW 13.8 mph - N/A Snow Light Snow
3:55 AM 20.5 °F 9.2 °F 19.0 °F 94% 29.81 in 7.0 mi NNW 10.4 mph - N/A Snow Light Snow
4:15 AM 18.9 °F - 17.4 °F 94% 29.81 in 7.0 mi Calm Calm - N/A Snow Light Snow
4:35 AM 17.2 °F - 16.0 °F 95% 29.82 in 10.0 mi Calm Calm - N/A   Clear
4:55 AM 16.7 °F 9.6 °F 15.4 °F 95% 29.83 in 10.0 mi NW 4.6 mph - N/A   Clear
5:15 AM 16.7 °F - 15.4 °F 95% 29.84 in 10.0 mi Calm Calm - N/A   Clear
5:35 AM 16.3 °F 4.9 °F 15.1 °F 95% 29.84 in 10.0 mi NW 9.2 mph - N/A   Clear
5:55 AM 16.5 °F 6.9 °F 15.3 °F 95% 29.85 in 10.0 mi WNW 6.9 mph - N/A   Clear
6:15 AM 16.5 °F 5.1 °F 15.1 °F 94% 29.86 in 10.0 mi NW 9.2 mph - N/A   Clear
6:35 AM 15.8 °F 4.2 °F 14.0 °F 93% 29.85 in 10.0 mi NW 9.2 mph - N/A   Clear
6:55 AM 14.9 °F 4.0 °F 13.6 °F 95% 29.85 in 10.0 mi NW 8.1 mph - N/A   Clear
7:35 AM 15.4 °F 3.8 °F 13.8 °F 93% 29.88 in 10.0 mi WNW 9.2 mph - N/A   Clear
7:55 AM 16.5 °F 4.3 °F 14.7 °F 93% 29.90 in 10.0 mi WNW 10.4 mph - N/A   Mostly Cloudy
8:15 AM 17.1 °F 4.3 °F 14.5 °F 90% 29.92 in 10.0 mi NW 11.5 mph - N/A   Mostly Cloudy
8:35 AM 16.7 °F 8.3 °F 13.6 °F 88% 29.93 in 10.0 mi WNW 5.8 mph - N/A   Scattered Clouds
8:55 AM 17.1 °F 5.0 °F 12.7 °F 83% 29.93 in 10.0 mi WNW 10.4 mph - N/A   Clear
9:15 AM 17.6 °F 8.2 °F 12.7 °F 81% 29.94 in 10.0 mi NW 6.9 mph - N/A   Clear
9:35 AM 18.1 °F 7.9 °F 12.7 °F 79% 29.95 in 10.0 mi NW 8.1 mph - N/A   Clear
9:55 AM 18.9 °F 8.0 °F 13.1 °F 78% 29.94 in 10.0 mi NW 9.2 mph - N/A   Clear
10:15 AM 19.4 °F 7.9 °F 13.5 °F 78% 29.96 in 10.0 mi NW 10.4 mph - N/A   Clear
10:35 AM 19.8 °F 8.3 °F 13.6 °F 77% 29.97 in 10.0 mi NW 10.4 mph - N/A   Clear
10:55 AM 20.1 °F 8.1 °F 13.8 °F 77% 29.98 in 10.0 mi WNW 11.5 mph 16.1 mph N/A   Clear
11:15 AM 20.5 °F 8.6 °F 13.8 °F 75% 29.99 in 10.0 mi WNW 11.5 mph - N/A   Clear
11:35 AM 21.6 °F 8.8 °F 14.5 °F 74% 30.00 in 10.0 mi West 13.8 mph - N/A   Scattered Clouds
11:55 AM 21.6 °F 8.2 °F 14.2 °F 73% 30.00 in 10.0 mi WNW 15.0 mph - N/A   Mostly Cloudy
12:15 PM 21.7 °F 8.5 °F 14.5 °F 74% 30.01 in 7.0 mi WNW 15.0 mph - N/A   Scattered Clouds
12:35 PM 22.1 °F 8.9 °F 14.4 °F 72% 30.01 in 10.0 mi WNW 15.0 mph - N/A   Clear
12:55 PM 23.0 °F 9.6 °F 15.1 °F 72% 30.00 in 10.0 mi WNW 16.1 mph 19.6 mph N/A   Clear
1:15 PM 23.0 °F 10.6 °F 14.7 °F 71% 29.99 in 7.0 mi WNW 13.8 mph - N/A   Clear
1:35 PM 23.7 °F 11.5 °F 14.7 °F 69% 29.99 in 10.0 mi NW 13.8 mph - N/A   Clear
1:55 PM 23.9 °F 11.7 °F 14.9 °F 69% 29.98 in 10.0 mi NNW 13.8 mph - N/A   Clear
2:15 PM 24.6 °F 14.4 °F 14.9 °F 67% 29.99 in 10.0 mi NW 10.4 mph - N/A   Clear
2:35 PM 24.6 °F 12.7 °F 14.2 °F 65% 29.99 in 10.0 mi WNW 13.8 mph - N/A   Clear
2:55 PM 24.4 °F 12.4 °F 14.5 °F 66% 30.00 in 10.0 mi WNW 13.8 mph - N/A   Clear
3:15 PM 24.3 °F - 14.5 °F 67% 30.00 in 10.0 mi Calm Calm - N/A   Clear
3:35 PM 23.9 °F 12.9 °F 14.7 °F 68% 30.00 in 10.0 mi WNW 11.5 mph - N/A   Scattered Clouds
3:55 PM 23.9 °F 13.5 °F 14.5 °F 67% 30.00 in 10.0 mi WNW 10.4 mph - N/A   Clear
4:15 PM 23.5 °F 13.7 °F 14.0 °F 67% 30.01 in 10.0 mi WNW 9.2 mph - N/A   Clear
4:35 PM 23.0 °F 12.4 °F 13.6 °F 67% 30.00 in 10.0 mi WNW 10.4 mph - N/A   Clear
4:55 PM 22.5 °F 17.8 °F 13.5 °F 68% 30.01 in 10.0 mi NW 3.5 mph - N/A   Clear
5:15 PM 21.2 °F - 12.7 °F 70% 30.01 in 10.0 mi Calm Calm - N/A   Clear
5:35 PM 20.5 °F - 12.7 °F 72% 30.01 in 10.0 mi Calm Calm - N/A   Clear
5:55 PM 19.4 °F - 11.8 °F 72% 30.01 in 10.0 mi Calm Calm - N/A   Clear
6:15 PM 17.8 °F - 10.9 °F 75% 30.02 in 10.0 mi Calm Calm - N/A   Clear
6:35 PM 16.9 °F - 10.4 °F 76% 30.02 in 10.0 mi Calm Calm - N/A   Clear
6:55 PM 16.9 °F - 10.6 °F 76% 30.03 in 10.0 mi Calm Calm - N/A   Clear
7:15 PM 15.8 °F - 9.9 °F 77% 30.03 in 10.0 mi Calm Calm - N/A   Clear
7:35 PM 15.6 °F - 9.7 °F 77% 30.03 in 10.0 mi Calm Calm - N/A   Clear
7:55 PM 13.5 °F - 8.2 °F 80% 30.03 in 10.0 mi Calm Calm - N/A   Clear
8:15 PM 13.3 °F - 8.6 °F 82% 30.03 in 10.0 mi Calm Calm - N/A   Clear
8:35 PM 12.6 °F - 7.9 °F 82% 30.03 in 10.0 mi Calm Calm - N/A   Clear
8:55 PM 13.8 °F 3.7 °F 9.1 °F 82% 30.03 in 10.0 mi West 6.9 mph - N/A   Clear
9:15 PM 12.7 °F - 8.2 °F 82% 30.03 in 10.0 mi Calm Calm - N/A   Clear
9:35 PM 13.3 °F - 8.6 °F 82% 30.03 in 10.0 mi Calm Calm - N/A   Clear
9:55 PM 12.2 °F -0.2 °F 7.9 °F 83% 30.03 in 10.0 mi West 9.2 mph - N/A   Clear
10:15 PM 12.0 °F - 7.7 °F 83% 30.02 in 10.0 mi Calm Calm - N/A   Clear
10:35 PM 11.1 °F - 7.3 °F 85% 30.02 in 10.0 mi Calm Calm - N/A   Clear
10:55 PM 10.8 °F -2.0 °F 7.0 °F 85% 30.03 in 10.0 mi WSW 9.2 mph - N/A   Clear
11:15 PM 10.9 °F - 7.3 °F 85% 30.02 in 10.0 mi Calm Calm - N/A   Clear
11:35 PM 11.1 °F - 7.3 °F 85% 30.02 in 10.0 mi Calm Calm - N/A   Clear
11:55 PM 10.8 °F - 7.2 °F 85% 30.02 in 10.0 mi Calm Calm - N/A   Clear